Torna al catalogo

STARLINK-4612

AttivoComunicazioniVLEO
NORAD 53750·PAYLOAD·🇺🇸 United States

Lanciato Sep 5, 2022 da Cape Canaveral Space Force Station

Loading…

Prossimi Passaggi (prossime 24 ore)

TLE

AggiornatoSource: CelesTrak SupGP

Epoca: Sep 14, 2026, 22:02 UTC

1 53750C 22107BC  26257.91854167 -.00008907  00000+0 -26320-3 0  2573
2 53750  53.1570 119.5030 0001250  88.0185  47.3060 15.34388675    11

Traccia STARLINK-4612 in tempo reale con AllMySat

Download on the App Store